Tracking 19795 objects as of 17-Jul-2019
HD Live streaming from Space Station
objects crossing your sky now

NEE 02 KRYSAOR

Track NEE 02 KRYSAOR now!
10-day predictions
NEE 02 KRYSAOR is classified as:


NORAD ID: 39441
Int'l Code: 2013-066AB
Perigee: 595.1 km
Apogee: 710.0 km
Inclination: 97.6 °
Period: 97.6 minutes
Semi major axis: 7023 km
RCS: Unknown
Launch date: November 21, 2013
Source: Ecuador (ECU)
Launch site: Orenburg, Russia (OREN)

Uplink (MHz):
Downlink (MHz): 980.000(bandwidth 25MHz)
Beacon (MHz):
Mode:
Call sign:
Status:

aabbcc
Your satellite tracking list
Your tracking list is empty




NASA's NSSDC Master Catalog

Two Line Element Set (TLE):
1 39441U 13066AB  19198.49158392  .00000065  00000-0  16460-4 0  9998
2 39441  97.6065 192.9901 0081775 359.6414   0.4723 14.74912852304047
Source of the keplerian elements: AFSPC